KC77 VQPR-VNKT

Flight info

Callsign KC77
Flight time 0h 59m
Altitude 34000
Route VQPR TO VNKT
Aircraft A319/M-V/N

Departure

Time 2026-04-30 12:17
Airport Paro International Airport (VQPR)

Arrival

Time 2026-04-30 13:17
Airport Tribhuvan International Airport (VNKT)
Time Latitude Longitude Altitude Speed Heading
2026-04-30 11:49 27.40724 89.42045 7349 ft 0 kts 242°
2026-04-30 12:08 27.40722 89.42039 7349 ft 0 kts 242°
2026-04-30 12:08 27.40721 89.42038 7349 ft 0 kts 242°
2026-04-30 12:10 27.40739 89.42075 7349 ft 5 kts 244°
2026-04-30 12:10 27.40733 89.42110 7349 ft 5 kts 321°
2026-04-30 12:10 27.40722 89.42117 7349 ft 0 kts 338°
2026-04-30 12:11 27.40723 89.42117 7349 ft 1 kts 338°
2026-04-30 12:11 27.40755 89.42091 7350 ft 9 kts 328°
2026-04-30 12:11 27.40790 89.42091 7350 ft 0 kts 82°
2026-04-30 12:11 27.40790 89.42092 7350 ft 0 kts 72°
2026-04-30 12:13 27.40791 89.42094 7350 ft 0 kts 64°
2026-04-30 12:13 27.40798 89.42109 7350 ft 3 kts 52°
2026-04-30 12:14 27.40822 89.42127 7351 ft 5 kts 25°
2026-04-30 12:14 27.40873 89.42123 7353 ft 9 kts 331°
2026-04-30 12:14 27.40949 89.42075 7353 ft 15 kts 330°
2026-04-30 12:14 27.41053 89.42006 7354 ft 19 kts 330°
2026-04-30 12:15 27.41159 89.41914 7354 ft 18 kts 311°
2026-04-30 12:15 27.41175 89.41937 7355 ft 9 kts 163°
2026-04-30 12:15 27.41143 89.41952 7354 ft 0 kts 150°
2026-04-30 12:16 27.41062 89.42004 7354 ft 49 kts 150°
2026-04-30 12:16 27.40509 89.42355 7343 ft 130 kts 150°
2026-04-30 12:16 27.39535 89.42988 7424 ft 185 kts 149°
2026-04-30 12:17 27.37368 89.44434 9353 ft 186 kts 148°
2026-04-30 12:17 27.36296 89.45184 10332 ft 185 kts 147°
2026-04-30 12:17 27.35254 89.45924 11218 ft 175 kts 150°
2026-04-30 12:18 27.34039 89.46148 11563 ft 187 kts 198°
2026-04-30 12:18 27.33133 89.45234 12213 ft 176 kts 251°
2026-04-30 12:18 27.33120 89.44004 13059 ft 148 kts 280°
2026-04-30 12:18 27.33205 89.42870 13477 ft 146 kts 266°
2026-04-30 12:19 27.33036 89.41737 13775 ft 152 kts 252°
2026-04-30 12:19 27.32635 89.40577 14018 ft 164 kts 245°
2026-04-30 12:19 27.32100 89.39394 14256 ft 178 kts 240°
2026-04-30 12:19 27.31449 89.38149 14491 ft 193 kts 238°
2026-04-30 12:20 27.30695 89.36823 14762 ft 208 kts 236°
2026-04-30 12:20 27.29869 89.35442 15028 ft 223 kts 235°
2026-04-30 12:20 27.28958 89.33964 15383 ft 233 kts 234°
2026-04-30 12:20 27.28039 89.32498 16028 ft 232 kts 234°
2026-04-30 12:21 27.27069 89.30968 16416 ft 246 kts 234°
2026-04-30 12:21 27.26060 89.29388 16913 ft 255 kts 234°
2026-04-30 12:21 27.25017 89.27763 17540 ft 257 kts 234°
2026-04-30 12:21 27.23982 89.26154 18154 ft 259 kts 234°
2026-04-30 12:22 27.22920 89.24506 18754 ft 262 kts 234°
2026-04-30 12:22 27.21849 89.22845 19338 ft 264 kts 234°
2026-04-30 12:22 27.20781 89.21191 19900 ft 266 kts 234°
2026-04-30 12:22 27.19686 89.19498 20455 ft 269 kts 234°
2026-04-30 12:23 27.18585 89.17795 20984 ft 271 kts 234°
2026-04-30 12:23 27.17477 89.16083 21494 ft 274 kts 234°
2026-04-30 12:23 27.16354 89.14346 21993 ft 277 kts 234°
2026-04-30 12:23 27.15213 89.12584 22484 ft 280 kts 234°
2026-04-30 12:24 27.14069 89.10819 22960 ft 283 kts 234°
2026-04-30 12:24 27.12910 89.09029 23426 ft 286 kts 234°
2026-04-30 12:24 27.11749 89.07239 23878 ft 288 kts 234°
2026-04-30 12:24 27.10569 89.05419 24323 ft 291 kts 234°
2026-04-30 12:25 27.09378 89.03583 24757 ft 294 kts 234°
2026-04-30 12:25 27.08167 89.01717 25185 ft 296 kts 234°
2026-04-30 12:25 27.06956 88.99853 25599 ft 299 kts 234°
2026-04-30 12:25 27.05719 88.97948 26010 ft 301 kts 234°
2026-04-30 12:26 27.04485 88.96048 26407 ft 304 kts 234°
2026-04-30 12:26 27.03243 88.94138 26797 ft 306 kts 234°
2026-04-30 12:26 27.01985 88.92204 27181 ft 309 kts 234°
2026-04-30 12:26 27.00710 88.90245 27561 ft 311 kts 234°
2026-04-30 12:27 26.99441 88.88273 27929 ft 314 kts 238°
2026-04-30 12:27 26.98612 88.85985 28249 ft 317 kts 262°
2026-04-30 12:27 26.98682 88.83548 28583 ft 318 kts 281°
2026-04-30 12:27 26.99177 88.81114 28951 ft 320 kts 283°
2026-04-30 12:28 26.99702 88.78693 29290 ft 323 kts 283°
2026-04-30 12:28 27.00228 88.76238 29628 ft 325 kts 283°
2026-04-30 12:28 27.00748 88.73776 29960 ft 327 kts 283°
2026-04-30 12:28 27.01271 88.71273 30289 ft 330 kts 283°
2026-04-30 12:29 27.01789 88.68777 30609 ft 332 kts 283°
2026-04-30 12:29 27.02315 88.66231 30927 ft 334 kts 283°
2026-04-30 12:29 27.02838 88.63692 31237 ft 336 kts 283°
2026-04-30 12:29 27.03362 88.61142 31542 ft 338 kts 283°
2026-04-30 12:30 27.03890 88.58572 31843 ft 340 kts 283°
2026-04-30 12:30 27.04421 88.55981 32139 ft 343 kts 283°
2026-04-30 12:30 27.04956 88.53365 32431 ft 345 kts 283°
2026-04-30 12:30 27.05492 88.50742 32719 ft 347 kts 283°
2026-04-30 12:31 27.06029 88.48106 33002 ft 349 kts 283°
2026-04-30 12:31 27.06574 88.45436 33282 ft 351 kts 283°
2026-04-30 12:31 27.07115 88.42777 33554 ft 353 kts 283°
2026-04-30 12:31 27.07662 88.40089 33819 ft 355 kts 283°
2026-04-30 12:32 27.08212 88.37383 34016 ft 358 kts 283°
2026-04-30 12:32 27.08768 88.34644 34017 ft 357 kts 282°
2026-04-30 12:32 27.09868 88.29191 34023 ft 357 kts 282°
2026-04-30 12:33 27.10716 88.24985 34023 ft 357 kts 282°
2026-04-30 12:33 27.11817 88.19527 34024 ft 357 kts 282°
2026-04-30 12:34 27.12909 88.14106 34024 ft 357 kts 282°
2026-04-30 12:34 27.14006 88.08648 34024 ft 357 kts 283°
2026-04-30 12:35 27.15098 88.03210 34024 ft 357 kts 283°
2026-04-30 12:35 27.15819 87.99612 34024 ft 357 kts 283°
2026-04-30 12:36 27.16926 87.94126 34054 ft 352 kts 281°
2026-04-30 12:36 27.17462 87.91489 34033 ft 337 kts 280°
2026-04-30 12:36 27.17960 87.88979 34030 ft 323 kts 280°
2026-04-30 12:37 27.18546 87.86016 34037 ft 319 kts 280°
2026-04-30 12:38 27.18689 87.85268 34010 ft 322 kts 282°
2026-04-30 12:39 27.19127 87.82988 34026 ft 330 kts 282°
2026-04-30 12:39 27.20115 87.78096 34052 ft 339 kts 281°
2026-04-30 12:40 27.20621 87.75589 34036 ft 325 kts 280°
2026-04-30 12:40 27.21104 87.73138 34038 ft 319 kts 280°
2026-04-30 12:40 27.22039 87.68379 34041 ft 320 kts 280°
2026-04-30 12:41 27.23003 87.63484 34043 ft 320 kts 280°
2026-04-30 12:41 27.23961 87.58623 34043 ft 320 kts 280°
2026-04-30 12:42 27.24888 87.53906 34043 ft 320 kts 280°
2026-04-30 12:42 27.25857 87.48977 34043 ft 320 kts 280°
2026-04-30 12:43 27.26817 87.44083 34043 ft 320 kts 280°
2026-04-30 12:43 27.27771 87.39209 34043 ft 320 kts 280°
2026-04-30 12:44 27.28728 87.34314 34045 ft 320 kts 279°
2026-04-30 12:44 27.29681 87.29411 34043 ft 320 kts 279°
2026-04-30 12:45 27.30633 87.24518 34043 ft 320 kts 279°
2026-04-30 12:45 27.31234 87.21417 34043 ft 319 kts 279°
2026-04-30 12:46 27.32186 87.16541 34043 ft 320 kts 280°
2026-04-30 12:46 27.33149 87.11655 34043 ft 319 kts 280°
2026-04-30 12:47 27.34108 87.06795 34043 ft 318 kts 279°
2026-04-30 12:47 27.35065 87.01927 34040 ft 317 kts 279°
2026-04-30 12:48 27.36023 86.97049 34035 ft 315 kts 279°
2026-04-30 12:48 27.36971 86.92216 34030 ft 314 kts 279°
2026-04-30 12:49 27.37913 86.87402 34025 ft 313 kts 279°
2026-04-30 12:49 27.38844 86.82632 34021 ft 312 kts 279°
2026-04-30 12:50 27.39771 86.77872 34019 ft 312 kts 279°
2026-04-30 12:50 27.40703 86.73080 34018 ft 312 kts 279°
2026-04-30 12:51 27.41628 86.68314 34018 ft 312 kts 279°
2026-04-30 12:51 27.42558 86.63519 34018 ft 312 kts 279°
2026-04-30 12:52 27.43478 86.58765 34018 ft 312 kts 279°
2026-04-30 12:52 27.44401 86.53990 34018 ft 312 kts 279°
2026-04-30 12:53 27.45328 86.49181 34018 ft 312 kts 279°
2026-04-30 12:53 27.46244 86.44425 34018 ft 312 kts 279°
2026-04-30 12:54 27.47160 86.39666 34018 ft 312 kts 279°
2026-04-30 12:54 27.48076 86.34888 34018 ft 312 kts 278°
2026-04-30 12:55 27.48988 86.30103 34019 ft 312 kts 279°
2026-04-30 12:55 27.49187 86.27161 34011 ft 308 kts 259°
2026-04-30 12:56 27.48458 86.24905 34019 ft 310 kts 240°
2026-04-30 12:56 27.47282 86.22874 34019 ft 311 kts 239°
2026-04-30 12:56 27.44877 86.18840 34018 ft 311 kts 239°
2026-04-30 12:57 27.42468 86.14810 34018 ft 311 kts 239°
2026-04-30 12:57 27.40052 86.10781 34018 ft 311 kts 239°
2026-04-30 12:58 27.37635 86.06753 34018 ft 311 kts 239°
2026-04-30 12:58 27.35207 86.02710 34017 ft 311 kts 239°
2026-04-30 12:59 27.33991 86.00687 33749 ft 313 kts 239°
2026-04-30 12:59 27.32748 85.98621 32927 ft 325 kts 239°
2026-04-30 12:59 27.31461 85.96481 31910 ft 342 kts 239°
2026-04-30 12:59 27.30074 85.94177 30794 ft 359 kts 240°
2026-04-30 13:00 27.28652 85.91814 29631 ft 375 kts 240°
2026-04-30 13:00 27.27169 85.89350 28388 ft 392 kts 240°
2026-04-30 13:00 27.25598 85.86746 27041 ft 409 kts 240°
2026-04-30 13:00 27.23984 85.84071 25607 ft 426 kts 239°
2026-04-30 13:01 27.22297 85.81277 24047 ft 442 kts 239°
2026-04-30 13:01 27.20579 85.78434 22899 ft 445 kts 239°
2026-04-30 13:01 27.18839 85.75564 22227 ft 437 kts 239°
2026-04-30 13:01 27.17166 85.72810 22016 ft 420 kts 239°
2026-04-30 13:02 27.15579 85.70200 22012 ft 399 kts 239°
2026-04-30 13:02 27.14066 85.67659 22004 ft 378 kts 243°
2026-04-30 13:02 27.12922 85.65117 22005 ft 357 kts 251°
2026-04-30 13:02 27.12171 85.62553 21979 ft 338 kts 260°
2026-04-30 13:03 27.11760 85.59965 21466 ft 336 kts 268°
2026-04-30 13:03 27.11664 85.57352 20596 ft 345 kts 273°
2026-04-30 13:03 27.11683 85.54600 19653 ft 356 kts 274°
2026-04-30 13:03 27.11710 85.51909 18744 ft 366 kts 273°
2026-04-30 13:04 27.11728 85.49032 18104 ft 366 kts 273°
2026-04-30 13:04 27.11737 85.46197 17432 ft 367 kts 272°
2026-04-30 13:04 27.11740 85.43335 17037 ft 359 kts 272°
2026-04-30 13:04 27.11739 85.40627 17010 ft 341 kts 272°
2026-04-30 13:05 27.11738 85.38020 17005 ft 324 kts 272°
2026-04-30 13:05 27.11737 85.35533 16995 ft 307 kts 273°
2026-04-30 13:05 27.11738 85.33124 16582 ft 307 kts 272°
2026-04-30 13:06 27.11839 85.30034 15551 ft 321 kts 279°
2026-04-30 13:06 27.12298 85.27541 14669 ft 331 kts 288°
2026-04-30 13:06 27.13106 85.25221 13790 ft 341 kts 297°
2026-04-30 13:06 27.14352 85.22919 12815 ft 351 kts 307°
2026-04-30 13:07 27.15980 85.20864 11795 ft 360 kts 317°
2026-04-30 13:07 27.17986 85.19124 10770 ft 368 kts 328°
2026-04-30 13:07 27.20243 85.17843 10048 ft 366 kts 339°
2026-04-30 13:07 27.22688 85.17052 9351 ft 363 kts 350°
2026-04-30 13:08 27.25161 85.16808 9014 ft 349 kts
2026-04-30 13:08 27.27505 85.17047 8824 ft 338 kts 11°
2026-04-30 13:08 27.29660 85.17705 8974 ft 328 kts 20°
2026-04-30 13:08 27.31715 85.18610 8994 ft 307 kts 23°
2026-04-30 13:09 27.33626 85.19501 8998 ft 289 kts 23°
2026-04-30 13:09 27.35439 85.20342 8999 ft 272 kts 23°
2026-04-30 13:09 27.37139 85.21124 8998 ft 256 kts 22°
2026-04-30 13:09 27.38722 85.21847 8997 ft 240 kts 22°
2026-04-30 13:10 27.40235 85.22537 8999 ft 229 kts 22°
2026-04-30 13:10 27.41637 85.23177 8899 ft 221 kts 22°
2026-04-30 13:10 27.43043 85.23817 8760 ft 215 kts 22°
2026-04-30 13:10 27.44379 85.24422 8625 ft 208 kts 20°
2026-04-30 13:11 27.45741 85.24779 8550 ft 199 kts
2026-04-30 13:11 27.47128 85.24750 8285 ft 200 kts 352°
2026-04-30 13:11 27.48482 85.24394 7938 ft 199 kts 346°
2026-04-30 13:11 27.49813 85.23981 7554 ft 200 kts 346°
2026-04-30 13:12 27.51168 85.23636 7196 ft 198 kts 354°
2026-04-30 13:12 27.52524 85.23591 6848 ft 196 kts
2026-04-30 13:12 27.53826 85.23848 6502 ft 194 kts 17°
2026-04-30 13:13 27.56192 85.25222 6315 ft 193 kts 39°
2026-04-30 13:13 27.57173 85.26147 6182 ft 188 kts 41°
2026-04-30 13:13 27.58992 85.28144 5926 ft 190 kts 53°
2026-04-30 13:14 27.59747 85.29396 5988 ft 192 kts 56°
2026-04-30 13:14 27.60548 85.30617 6001 ft 192 kts 49°
2026-04-30 13:14 27.62561 85.32528 5576 ft 189 kts 31°
2026-04-30 13:15 27.63742 85.33179 5217 ft 189 kts 23°
2026-04-30 13:15 27.66024 85.34222 4761 ft 168 kts 24°
2026-04-30 13:15 27.67062 85.34726 4559 ft 158 kts 24°
2026-04-30 13:16 27.68033 85.35162 4423 ft 144 kts 23°
2026-04-30 13:16 27.68925 85.35580 4346 ft 129 kts 24°
2026-04-30 13:16 27.69721 85.35938 4388 ft 115 kts 22°
2026-04-30 13:17 27.70547 85.36304 4397 ft 15 kts 346°
2026-04-30 13:17 27.70568 85.36240 4398 ft 9 kts 242°
2026-04-30 13:17 27.70430 85.36152 4400 ft 12 kts 201°
2026-04-30 13:18 27.70347 85.36114 4402 ft 13 kts 201°
2026-04-30 13:18 27.70154 85.36028 4400 ft 17 kts 202°
2026-04-30 13:18 27.70032 85.35973 4396 ft 20 kts 201°
2026-04-30 13:19 27.69948 85.35905 4392 ft 10 kts 265°
2026-04-30 13:19 27.69958 85.35819 4389 ft 0 kts 288°